Location: Piotrkow Trybunalski
(51.4000°N, 19.6830°E)
Time: 20:07:10
(UTC+02:00)

Explorer 7 - Pass Details

Date: 21 September 2024
Orbit: 460 x 606 km, 50.3° (Epoch: 12 October)

Event Time Altitude Azimuth Distance (km) Brightness Sun altitude
Exits shadow 03:01:48 13° 90° (E) 1,426 9.4 -29.4°
Drops below altitude 10° 03:02:17 10° 89° (E) 1,622 9.7 -29.4°
Sets 03:04:25 0° 87° (E) 2,488 10.8 -29.1°
